This is the latest recevied weather packets stored in our database for station/object KC5TIL-3. If no packets are shown the sender has not sent any weather packets the latest 10 day(s).
| Time | Temp. | Humidity | Pressure | Rain* | Wind** | Luminosity | Snow |
|---|---|---|---|---|---|---|---|
| 1787514364 | 40° C | 10% | 1010.8 hPa | 0 mm | 1.79 m/s, 144° | - | - |
| 1787514063 | 40° C | 10% | 1010.8 hPa | 0 mm | 2.68 m/s, 215° | - | - |
| 1787513764 | 40.56° C | 10% | 1010.8 hPa | 0 mm | 2.68 m/s, 175° | - | - |
| 1787513466 | 40.56° C | 10% | 1010.8 hPa | 0 mm | 1.79 m/s, 189° | - | - |
| 1787513165 | 40.56° C | 10% | 1010.8 hPa | 0 mm | 2.24 m/s, 104° | - | - |
| 1787512867 | 40.56° C | 10% | 1010.8 hPa | 0 mm | 3.13 m/s, 215° | - | - |
| 1787512569 | 40.56° C | 10% | 1011.8 hPa | 0 mm | 1.79 m/s, 272° | - | - |
| 1787512267 | 40.56° C | 10% | 1011.8 hPa | 0 mm | 1.34 m/s, 283° | - | - |
| 1787511969 | 40° C | 10% | 1011.8 hPa | 0 mm | 2.24 m/s, 219° | - | - |
| 1787511666 | 40° C | 10% | 1011.8 hPa | 0 mm | 2.24 m/s, 220° | - | - |
| 1787511365 | 40° C | 10% | 1011.8 hPa | 0 mm | 1.79 m/s, 128° | - | - |
| 1787511066 | 40° C | 10% | 1011.8 hPa | 0 mm | 3.13 m/s, 185° | - | - |
| 1787510768 | 40° C | 10% | 1011.8 hPa | 0 mm | 2.24 m/s, 151° | - | - |
| 1787510467 | 40° C | 10% | 1011.8 hPa | 0 mm | 2.68 m/s, 130° | - | - |
| 1787510169 | 40° C | 10% | 1011.8 hPa | 0 mm | 3.58 m/s, 194° | - | - |
| 1787509866 | 40° C | 10% | 1011.8 hPa | 0 mm | 3.58 m/s, 179° | - | - |
| 1787509564 | 39.44° C | 10% | 1011.8 hPa | 0 mm | 2.24 m/s, 230° | - | - |
| 1787509262 | 39.44° C | 10% | 1011.8 hPa | 0 mm | 1.79 m/s, 240° | - | - |
| 1787508963 | 38.89° C | 10% | 1011.8 hPa | 0 mm | 3.58 m/s, 209° | - | - |
| 1787508656 | 39.44° C | 10% | 1011.8 hPa | 0 mm | 1.79 m/s, 264° | - | - |
| 1787508358 | 39.44° C | 10% | 1011.8 hPa | 0 mm | 1.79 m/s, 168° | - | - |
| 1787508059 | 38.89° C | 10% | 1012.8 hPa | 0 mm | 2.68 m/s, 232° | - | - |
| 1787507753 | 38.89° C | 10% | 1012.8 hPa | 0 mm | 2.68 m/s, 197° | - | - |
| 1787507454 | 38.89° C | 10% | 1012.8 hPa | 0 mm | 2.24 m/s, 215° | - | - |
| 1787507156 | 38.33° C | 10% | 1012.8 hPa | 0 mm | 3.13 m/s, 225° | - | - |
* Rain latest hour (hover to see other rain measurements)
** Current wind speed in m/s (hover to see current wind gust speed)